This is the latest recevied weather packets stored in our database for station/object N9BSW. If no packets are shown the sender has not sent any weather packets the latest 10 day(s).
| Time | Temp. | Humidity | Pressure | Rain* | Wind** | Luminosity | Snow |
|---|---|---|---|---|---|---|---|
| 1777512389 | 12.78° C | 55% | 1014.1 hPa | 0 mm | - | 0 W/m² | - |
| 1777512086 | 12.78° C | 55% | 1014 hPa | 0 mm | - | 0 W/m² | - |
| 1777511784 | 12.78° C | 54% | 1013.9 hPa | 0 mm | - | 0 W/m² | - |
| 1777511480 | 12.78° C | 53% | 1013.7 hPa | 0 mm | - | 0 W/m² | - |
| 1777511178 | 12.78° C | 54% | 1013.8 hPa | 0 mm | - | 0 W/m² | - |
| 1777510873 | 12.78° C | 54% | 1013.8 hPa | 0 mm | - | 0 W/m² | - |
| 1777510570 | 12.78° C | 53% | 1013.7 hPa | 0 mm | - | 0 W/m² | - |
| 1777510266 | 13.33° C | 54% | 1013.7 hPa | 0 mm | - | 0 W/m² | - |
| 1777509963 | 13.33° C | 52% | 1013.3 hPa | 0 mm | - | 1 W/m² | - |
| 1777509658 | 13.33° C | 52% | 1013.2 hPa | 0 mm | - | 2 W/m² | - |
| 1777509355 | 13.33° C | 52% | 1013.4 hPa | 0 mm | - | 4 W/m² | - |
| 1777509053 | 13.33° C | 52% | 1013.4 hPa | 0 mm | - | 5 W/m² | - |
| 1777508750 | 13.33° C | 53% | 1013.4 hPa | 0 mm | - | 8 W/m² | - |
| 1777508447 | 13.89° C | 51% | 1013.8 hPa | 0 mm | - | 12 W/m² | - |
| 1777508144 | 13.89° C | 51% | 1013.4 hPa | 0 mm | - | 17 W/m² | - |
| 1777507841 | 13.89° C | 52% | 1013.3 hPa | 0 mm | - | 21 W/m² | - |
| 1777507538 | 14.44° C | 50% | 1013.3 hPa | 0 mm | - | 26 W/m² | - |
| 1777507234 | 14.44° C | 50% | 1013.2 hPa | 0 mm | - | 31 W/m² | - |
| 1777506932 | 14.44° C | 51% | 1013.2 hPa | 0 mm | - | 36 W/m² | - |
| 1777506629 | 14.44° C | 53% | 1013.2 hPa | 0 mm | - | 48 W/m² | - |
| 1777506325 | 14.44° C | 52% | 1013.3 hPa | 0 mm | - | 48 W/m² | - |
| 1777506021 | 15° C | 51% | 1013 hPa | 0 mm | - | 54 W/m² | - |
| 1777505717 | 15° C | 50% | 1013 hPa | 0 mm | - | 58 W/m² | - |
| 1777505415 | 15° C | 51% | 1013 hPa | 0 mm | - | 59 W/m² | - |
| 1777505111 | 15.56° C | 53% | 1013.1 hPa | 0 mm | - | 86 W/m² | - |
* Rain latest hour (hover to see other rain measurements)
** Current wind speed in m/s (hover to see current wind gust speed)